ARIANE 44LP DEB, 26812

Orbit data source: Space-Track

ARIANE 44LP DEB, 26812 is space debris in HEO originally from a launch on Sun, 11 Dec 1988 UTC launched from the French Guiana (FRGUI). Debris objects in space refer to the collection of defunct objects orbiting the Earth. Examples of debris include non-operational satellites, rocket bodies, and fragments generated from explosions, collisions, or faulty payload assembly.

Loading next visibility...
Identifier
26812, 1988-109P
Orbit
HEO
Country
Flag of FRFR
Related business
Manufacturer
Unknown
Mission
Spacecraft
Bus & Motor
Unknown
Mass
Unknown
Launch date (UTC)
1988-12-11 (38 years ago)
Launch vehicle
Unknown
Launch site
French Guiana (FRGUI)
Object type
Payload
Rocket body
Debris
Shape & HBR
Unknown shape, 1.1 m
Radar Cross Section
Medium (>0.1 m² and <1 m²)

Expand to show TLE details & history
Last TLE update: 1 week ago

TLE from 1 week ago
0 ARIANE 44LP DEB
1 26812U 88109P   26165.95523218 -.00000024  00000-0  00000-0 0  9997
2 26812   6.1336 166.5734 7011807 216.7993  32.3029  2.21748306230145
Epoch: 2026-06-14T22:55Z
TLE epoch observation values (Epoch: 2026-06-14T22:55:32.060Z)
Latitude
-2.5653°
Longitude
-105.5937°
Altitude
12,450.884 km
Speed
5.127 km/s
True Right ascension
09h 26m 09s
True Declination
-2° 33' 34"
Sunlit
Object was in daylight at epoch
Visualization orbit readout
Latitude
Unknown
Longitude
Unknown
Altitude
Unknown
Speed
Unknown
Apparent Right ascension
Unknown
Apparent Declination
Unknown
Sunlit
N/A
Visualization observer readout
Local Sidereal Time
23:27:02
Azimuth
Unknown
Elevation
Unknown
Doppler factor
Unknown
Orbital elements
Apogee altitude
35,888.375 km
Perigee altitude
1,046.148 km
Semi-major axis
24,845.398 km
Eccentricity
0.70118
Inclination
6.1336°
RAAN
166.5734°
Arg. of periapsis
216.7993°
True anomaly
118.26202°
Mean anomaly
32.3029°
Eccentric anomaly
70.072°
Mean motion
0.55421 °/min
Orbital period
649.57 mins
BSTAR
0
Loading maneuver chart data...
Computing Atmospheric mass density...
Loading historical data...
Loading historical data...
Loading historical data...
Loading historical data...
Loading historical data...
Loading historical data...
Loading historical data...

Documentation

Showing up to 5 results
|